Location: Unspecified
(49.2170°N, 0.0000°E)
Time: 01:27:58
(UTC+00:00)

Transit 2A - Pass Details

Date: 24 June 2019
Orbit: 596 x 962 km, 66.7° (Epoch: 16 August)

Event Time Altitude Azimuth Distance (km) Brightness Sun altitude
Exits shadow 01:02:16 13° 239° (WSW) 2,508 8.2 -16.1°
Maximum altitude 01:07:56 53° 314° (NW) 1,160 7.1 -15.9°
Drops below altitude 10° 01:13:58 10° 30° (NNE) 2,614 10.0 -15.6°
Sets 01:16:30 0° 36° (NE) 3,516 10.9 -15.5°
